• In Hungary
  • List of Countries
  • For 7 days
  • Water Temperature
  • Satellite Maps
  • Weather Map
  • News
  • Weather Widgets
  • user-avatar
    Login

    Hourly Weather Portland

    Today, 16 December, Saturday

    Time Temperature Precipitation Wind Pressure Humidity
    00:00 +5°C° 0.1 mm 1 mps 768 mmHg 95%
    01:00 +5°C° 0.1 mm 1 mps 768 mmHg 95%
    02:00 +5°C° 0 mm 1 mps 768 mmHg 95%
    03:00 +5°C° 0 mm 1 mps 769 mmHg 94%
    04:00 +5°C° 0 mm 1 mps 769 mmHg 94%
    05:00 +5°C° 0 mm 1 mps 769 mmHg 94%
    06:00 +5°C° 0 mm 1 mps 769 mmHg 93%
    07:00 +5°C° 0 mm 1 mps 769 mmHg 93%
    08:00 +6°C° 0.1 mm 1 mps 769 mmHg 92%
    09:00 +6°C° 0.1 mm 1 mps 769 mmHg 91%
    10:00 +7°C° 0.1 mm 1 mps 769 mmHg 89%
    11:00 +7°C° 0.1 mm 1 mps 769 mmHg 87%
    12:00 +8°C° 0.1 mm 1 mps 768 mmHg 85%
    13:00 +9°C° 0.1 mm 1 mps 768 mmHg 83%
    14:00 +8°C° 0.1 mm 1 mps 768 mmHg 86%
    15:00 +8°C° 0.1 mm 1 mps 768 mmHg 88%
    16:00 +8°C° 0.1 mm 1 mps 767 mmHg 91%
    17:00 +7°C° 0 mm 1 mps 767 mmHg 92%
    18:00 +7°C° 0 mm 1 mps 767 mmHg 93%
    19:00 +6°C° 0 mm 1 mps 768 mmHg 94%
    20:00 +6°C° 0 mm 1 mps 768 mmHg 94%
    21:00 +6°C° 0 mm 1 mps 768 mmHg 94%
    22:00 +6°C° 0 mm 1 mps 768 mmHg 94%
    23:00 +6°C° 0 mm 1 mps 768 mmHg 94%

    Tomorrow, 17 December, Sunday

    Time Temperature Precipitation Wind Pressure Humidity
    00:00 +6°C° 0 mm 1 mps 767 mmHg 94%
    01:00 +6°C° 0 mm 1 mps 767 mmHg 93%
    02:00 +6°C° 0.1 mm 1 mps 767 mmHg 92%
    03:00 +6°C° 0.1 mm 1 mps 767 mmHg 92%
    04:00 +7°C° 0.1 mm 1 mps 766 mmHg 91%
    05:00 +7°C° 0.2 mm 1 mps 766 mmHg 91%
    06:00 +7°C° 0.2 mm 1 mps 766 mmHg 91%
    07:00 +7°C° 0.2 mm 1 mps 766 mmHg 90%
    08:00 +7°C° 0.2 mm 1 mps 765 mmHg 90%
    09:00 +7°C° 0.2 mm 1 mps 765 mmHg 89%
    10:00 +8°C° 0.2 mm 1 mps 765 mmHg 89%
    11:00 +8°C° 0.2 mm 1 mps 765 mmHg 89%
    12:00 +8°C° 0.2 mm 1 mps 764 mmHg 89%
    13:00 +9°C° 0.2 mm 1 mps 764 mmHg 88%
    14:00 +9°C° 0.3 mm 1 mps 763 mmHg 90%
    15:00 +9°C° 0.3 mm 1 mps 763 mmHg 91%
    16:00 +9°C° 0.3 mm 1 mps 763 mmHg 92%
    17:00 +9°C° 0.6 mm 1 mps 763 mmHg 93%
    18:00 +9°C° 0.6 mm 1 mps 763 mmHg 93%
    19:00 +9°C° 0.6 mm 1 mps 763 mmHg 94%
    20:00 +8°C° 0.5 mm 2 mps 764 mmHg 94%
    21:00 +9°C° 0.5 mm 2 mps 764 mmHg 95%
    22:00 +9°C° 0.5 mm 2 mps 764 mmHg 95%
    23:00 +9°C° 0.5 mm 2 mps 764 mmHg 95%

    Day after tomorrow, 18 December, Monday

    Time Temperature Precipitation Wind Pressure Humidity
    00:00 +9°C° 0.5 mm 2 mps 764 mmHg 95%
    01:00 +9°C° 0.5 mm 2 mps 764 mmHg 96%
    02:00 +9°C° 0.6 mm 2 mps 764 mmHg 96%
    03:00 +9°C° 0.6 mm 2 mps 764 mmHg 96%
    04:00 +9°C° 0.6 mm 3 mps 764 mmHg 96%
    05:00 +9°C° 0.9 mm 3 mps 764 mmHg 96%
    06:00 +10°C° 0.9 mm 3 mps 764 mmHg 96%
    07:00 +10°C° 0.9 mm 3 mps 765 mmHg 96%
    08:00 +10°C° 0.5 mm 2 mps 765 mmHg 95%
    09:00 +10°C° 0.5 mm 2 mps 765 mmHg 95%
    10:00 +10°C° 0.5 mm 2 mps 766 mmHg 95%
    11:00 +10°C° 0.2 mm 2 mps 766 mmHg 94%
    12:00 +10°C° 0.2 mm 2 mps 766 mmHg 93%
    13:00 +11°C° 0.2 mm 1 mps 766 mmHg 92%
    14:00 +11°C° 0.1 mm 1 mps 766 mmHg 93%
    15:00 +11°C° 0.1 mm 1 mps 766 mmHg 94%
    16:00 +11°C° 0.1 mm 1 mps 766 mmHg 95%
    17:00 +11°C° 0.1 mm 1 mps 766 mmHg 95%
    18:00 +10°C° 0.1 mm 1 mps 766 mmHg 96%
    19:00 +10°C° 0.1 mm 1 mps 766 mmHg 96%
    20:00 +10°C° 0 mm 1 mps 766 mmHg 96%
    21:00 +10°C° 0 mm 1 mps 766 mmHg 96%
    22:00 +10°C° 0 mm 1 mps 766 mmHg 96%
    23:00 +10°C° 0 mm 1 mps 765 mmHg 95%

    19 December, Tuesday

    Time Temperature Precipitation Wind Pressure Humidity
    00:00 +10°C° 0 mm 1 mps 765 mmHg 94%
    01:00 +9°C° 0 mm 1 mps 764 mmHg 93%
    02:00 +9°C° 0 mm 1 mps 764 mmHg 93%
    03:00 +8°C° 0 mm 2 mps 763 mmHg 92%
    04:00 +8°C° 0 mm 2 mps 763 mmHg 92%
    05:00 +9°C° 0.1 mm 2 mps 763 mmHg 91%
    06:00 +9°C° 0.1 mm 3 mps 762 mmHg 90%
    07:00 +9°C° 0.1 mm 3 mps 762 mmHg 89%
    08:00 +8°C° 0.1 mm 4 mps 761 mmHg 88%
    09:00 +10°C° 0.1 mm 4 mps 761 mmHg 87%
    10:00 +10°C° 0.1 mm 4 mps 760 mmHg 86%
    11:00 +9°C° 0.2 mm 5 mps 759 mmHg 86%
    12:00 +10°C° 0.2 mm 5 mps 759 mmHg 85%
    13:00 +10°C° 0.2 mm 6 mps 758 mmHg 85%
    14:00 +10°C° 1.7 mm 6 mps 758 mmHg 86%
    15:00 +10°C° 1.7 mm 6 mps 757 mmHg 87%
    16:00 +10°C° 1.7 mm 6 mps 757 mmHg 88%
    17:00 +9°C° 3.5 mm 5 mps 757 mmHg 89%
    18:00 +8°C° 3.5 mm 4 mps 757 mmHg 90%
    19:00 +8°C° 3.5 mm 3 mps 757 mmHg 90%
    20:00 +7°C° 2 mm 3 mps 757 mmHg 90%
    21:00 +7°C° 2 mm 3 mps 757 mmHg 89%
    22:00 +7°C° 2 mm 3 mps 758 mmHg 88%
    23:00 +5°C° 0.9 mm 3 mps 758 mmHg 88%

    20 December, Wednesday

    Time Temperature Precipitation Wind Pressure Humidity
    00:00 +5°C° 0.9 mm 3 mps 759 mmHg 89%
    01:00 +5°C° 0.9 mm 3 mps 759 mmHg 89%
    02:00 +5°C° 0.4 mm 2 mps 760 mmHg 89%
    03:00 +5°C° 0.4 mm 2 mps 760 mmHg 90%
    04:00 +5°C° 0.4 mm 2 mps 760 mmHg 91%
    05:00 +5°C° 0.3 mm 2 mps 761 mmHg 91%
    06:00 +5°C° 0.3 mm 2 mps 761 mmHg 91%
    07:00 +5°C° 0.3 mm 2 mps 761 mmHg 91%
    08:00 +5°C° 0.1 mm 2 mps 762 mmHg 90%
    09:00 +7°C° 0.1 mm 1 mps 763 mmHg 89%
    10:00 +7°C° 0.1 mm 1 mps 764 mmHg 88%
    11:00 +8°C° 0 mm 1 mps 764 mmHg 84%
    12:00 +8°C° 0 mm 1 mps 765 mmHg 80%
    13:00 +9°C° 0 mm 1 mps 766 mmHg 77%
    14:00 +9°C° 0 mm 1 mps 767 mmHg 78%
    15:00 +8°C° 0 mm 1 mps 767 mmHg 80%
    16:00 +7°C° 0 mm 1 mps 768 mmHg 82%
    17:00 +6°C° 0 mm 1 mps 769 mmHg 84%
    18:00 +5°C° 0 mm 1 mps 770 mmHg 86%
    19:00 +4°C° 0 mm 1 mps 770 mmHg 88%
    20:00 +4°C° 0 mm 1 mps 771 mmHg 88%
    21:00 +3°C° 0 mm 1 mps 772 mmHg 87%
    22:00 +3°C° 0 mm 1 mps 772 mmHg 86%
    23:00 +2°C° 0 mm 1 mps 773 mmHg 86%

    21 December, Thursday

    Time Temperature Precipitation Wind Pressure Humidity
    00:00 +2°C° 0 mm 1 mps 773 mmHg 85%
    01:00 +2°C° 0 mm 1 mps 774 mmHg 84%
    02:00 +2°C° 0 mm 1 mps 774 mmHg 84%
    03:00 +2°C° 0 mm 1 mps 774 mmHg 83%
    04:00 +2°C° 0 mm 1 mps 775 mmHg 83%
    05:00 +1°C° 0 mm 1 mps 775 mmHg 83%
    06:00 +1°C° 0 mm 1 mps 775 mmHg 82%
    07:00 +1°C° 0 mm 1 mps 776 mmHg 82%
    08:00 +2°C° 0 mm 1 mps 776 mmHg 79%
    09:00 +4°C° 0 mm 1 mps 776 mmHg 75%
    10:00 +5°C° 0 mm 1 mps 776 mmHg 71%
    11:00 +6°C° 0 mm 1 mps 776 mmHg 66%
    12:00 +8°C° 0 mm 1 mps 775 mmHg 61%
    13:00 +9°C° 0 mm 1 mps 775 mmHg 56%
    14:00 +8°C° 0 mm 1 mps 775 mmHg 60%
    15:00 +7°C° 0 mm 1 mps 775 mmHg 64%
    16:00 +7°C° 0 mm 1 mps 775 mmHg 68%
    17:00 +5°C° 0 mm 1 mps 775 mmHg 69%
    18:00 +4°C° 0 mm 1 mps 775 mmHg 70%
    19:00 +3°C° 0 mm 1 mps 775 mmHg 71%
    20:00 +3°C° 0 mm 1 mps 775 mmHg 71%
    21:00 +3°C° 0 mm 1 mps 776 mmHg 70%
    22:00 +2°C° 0 mm 1 mps 776 mmHg 70%
    23:00 +2°C° 0 mm 1 mps 776 mmHg 69%
    Show more